owner,sensor,date,latitude,longitude,air_pressure(mBar),qcFlag 
WAVCIS,ioos:station:WAVCIS:CSI09:1,2011-03-01T00:00:00Z,29.1015,-89.9782,1013.01,11111222 
WAVCIS,ioos:station:WAVCIS:CSI09:1,2011-03-01T01:00:00Z,29.1015,-89.9782,1013.66,11111222 
WAVCIS,ioos:station:WAVCIS:CSI09:1,2011-03-01T02:00:00Z,29.1015,-89.9782,1014.53,11111222 
WAVCIS,ioos:station:WAVCIS:CSI09:1,2011-03-01T03:00:00Z,29.1015,-89.9782,1015.08,11111222 
WAVCIS,ioos:station:WAVCIS:CSI09:1,2011-03-01T04:00:00Z,29.1015,-89.9782,1015.69,11111222 
WAVCIS,ioos:station:WAVCIS:CSI09:1,2011-03-01T05:00:00Z,29.1015,-89.9782,1015.91,11111222 
WAVCIS,ioos:station:WAVCIS:CSI09:1,2011-03-01T06:00:00Z,29.1015,-89.9782,1016.25,11111222 
WAVCIS,ioos:station:WAVCIS:CSI09:1,2011-03-01T07:00:00Z,29.1015,-89.9782,1016.31,11111222 
WAVCIS,ioos:station:WAVCIS:CSI09:1,2011-03-01T08:00:00Z,29.1015,-89.9782,1016.57,11111222 
WAVCIS,ioos:station:WAVCIS:CSI09:1,2011-03-01T09:00:00Z,29.1015,-89.9782,1016.72,11111222 
WAVCIS,ioos:station:WAVCIS:CSI09:1,2011-03-01T10:00:00Z,29.1015,-89.9782,1017.08,11111222 
WAVCIS,ioos:station:WAVCIS:CSI09:1,2011-03-01T11:00:00Z,29.1015,-89.9782,1017.71,11111222 
WAVCIS,ioos:station:WAVCIS:CSI09:1,2011-03-01T12:00:00Z,29.1015,-89.9782,1018.51,11111222 
WAVCIS,ioos:station:WAVCIS:CSI09:1,2011-03-01T13:00:00Z,29.1015,-89.9782,1019.33,11111222 
WAVCIS,ioos:station:WAVCIS:CSI09:1,2011-03-01T14:00:00Z,29.1015,-89.9782,1020.02,11111222 
WAVCIS,ioos:station:WAVCIS:CSI09:1,2011-03-01T15:00:00Z,29.1015,-89.9782,1020.77,11111222 
WAVCIS,ioos:station:WAVCIS:CSI09:1,2011-03-01T16:00:00Z,29.1015,-89.9782,1021.11,11111222 
WAVCIS,ioos:station:WAVCIS:CSI09:1,2011-03-01T17:00:00Z,29.1015,-89.9782,1021.34,11111222 
WAVCIS,ioos:station:WAVCIS:CSI09:1,2011-03-01T18:00:00Z,29.1015,-89.9782,1021.03,11111222 
WAVCIS,ioos:station:WAVCIS:CSI09:1,2011-03-01T19:00:00Z,29.1015,-89.9782,1020.31,11111222 
WAVCIS,ioos:station:WAVCIS:CSI09:1,2011-03-01T20:00:00Z,29.1015,-89.9782,1019.74,11111222 
WAVCIS,ioos:station:WAVCIS:CSI09:1,2011-03-01T21:00:00Z,29.1015,-89.9782,1019.41,11111222 
WAVCIS,ioos:station:WAVCIS:CSI09:1,2011-03-01T22:00:00Z,29.1015,-89.9782,1019.21,11111222 
WAVCIS,ioos:station:WAVCIS:CSI09:1,2011-03-01T23:00:00Z,29.1015,-89.9782,1019.27,11111222 
WAVCIS,ioos:station:WAVCIS:CSI09:1,2011-03-02T00:00:00Z,29.1015,-89.9782,1019.56,11111222 
WAVCIS,ioos:station:WAVCIS:CSI09:1,2011-03-02T01:00:00Z,29.1015,-89.9782,1019.87,11111222 
WAVCIS,ioos:station:WAVCIS:CSI09:1,2011-03-02T02:00:00Z,29.1015,-89.9782,1020.4,11111222 
WAVCIS,ioos:station:WAVCIS:CSI09:1,2011-03-02T03:00:00Z,29.1015,-89.9782,1020.52,11111222 
WAVCIS,ioos:station:WAVCIS:CSI09:1,2011-03-02T04:00:00Z,29.1015,-89.9782,1020.58,11111222 
WAVCIS,ioos:station:WAVCIS:CSI09:1,2011-03-02T05:00:00Z,29.1015,-89.9782,1020.32,11111222 
WAVCIS,ioos:station:WAVCIS:CSI09:1,2011-03-02T06:00:00Z,29.1015,-89.9782,1019.65,11111222 
WAVCIS,ioos:station:WAVCIS:CSI09:1,2011-03-02T07:00:00Z,29.1015,-89.9782,1019.24,11111222 
WAVCIS,ioos:station:WAVCIS:CSI09:1,2011-03-02T08:00:00Z,29.1015,-89.9782,1019.04,11111222 
WAVCIS,ioos:station:WAVCIS:CSI09:1,2011-03-02T09:00:00Z,29.1015,-89.9782,1019.13,11111222 
WAVCIS,ioos:station:WAVCIS:CSI09:1,2011-03-02T10:00:00Z,29.1015,-89.9782,1018.85,11111222 
WAVCIS,ioos:station:WAVCIS:CSI09:1,2011-03-02T11:00:00Z,29.1015,-89.9782,1018.87,11111222 
WAVCIS,ioos:station:WAVCIS:CSI09:1,2011-03-02T12:00:00Z,29.1015,-89.9782,1019.27,11111222 
WAVCIS,ioos:station:WAVCIS:CSI09:1,2011-03-02T13:00:00Z,29.1015,-89.9782,1020.08,11111222 
WAVCIS,ioos:station:WAVCIS:CSI09:1,2011-03-02T14:00:00Z,29.1015,-89.9782,1020.59,11111222 
WAVCIS,ioos:station:WAVCIS:CSI09:1,2011-03-02T15:00:00Z,29.1015,-89.9782,1020.88,11111222 
WAVCIS,ioos:station:WAVCIS:CSI09:1,2011-03-02T16:00:00Z,29.1015,-89.9782,1020.95,11111222 
WAVCIS,ioos:station:WAVCIS:CSI09:1,2011-03-02T17:00:00Z,29.1015,-89.9782,1020.94,11111222 
WAVCIS,ioos:station:WAVCIS:CSI09:1,2011-03-02T18:00:00Z,29.1015,-89.9782,1020.39,11111222 
WAVCIS,ioos:station:WAVCIS:CSI09:1,2011-03-02T19:00:00Z,29.1015,-89.9782,1019.59,11111222 
WAVCIS,ioos:station:WAVCIS:CSI09:1,2011-03-02T20:00:00Z,29.1015,-89.9782,1019.11,11111222 
WAVCIS,ioos:station:WAVCIS:CSI09:1,2011-03-02T21:00:00Z,29.1015,-89.9782,1018.51,11111222 
WAVCIS,ioos:station:WAVCIS:CSI09:1,2011-03-02T22:00:00Z,29.1015,-89.9782,1018.27,11111222 
WAVCIS,ioos:station:WAVCIS:CSI09:1,2011-03-02T23:00:00Z,29.1015,-89.9782,1018.47,11111222 
WAVCIS,ioos:station:WAVCIS:CSI09:1,2011-03-03T00:00:00Z,29.1015,-89.9782,1018.45,11111222 
WAVCIS,ioos:station:WAVCIS:CSI09:1,2011-03-03T01:00:00Z,29.1015,-89.9782,1018.22,11111222 
WAVCIS,ioos:station:WAVCIS:CSI09:1,2011-03-03T02:00:00Z,29.1015,-89.9782,1018.58,11111222 
WAVCIS,ioos:station:WAVCIS:CSI09:1,2011-03-03T03:00:00Z,29.1015,-89.9782,1018.86,11111222 
WAVCIS,ioos:station:WAVCIS:CSI09:1,2011-03-03T04:00:00Z,29.1015,-89.9782,1019.4,11111222 
WAVCIS,ioos:station:WAVCIS:CSI09:1,2011-03-03T05:00:00Z,29.1015,-89.9782,1019.02,11111222 
WAVCIS,ioos:station:WAVCIS:CSI09:1,2011-03-03T06:00:00Z,29.1015,-89.9782,1018.32,11111222 
WAVCIS,ioos:station:WAVCIS:CSI09:1,2011-03-03T07:00:00Z,29.1015,-89.9782,1017.98,11111222 
WAVCIS,ioos:station:WAVCIS:CSI09:1,2011-03-03T08:00:00Z,29.1015,-89.9782,1017.7,11111222 
WAVCIS,ioos:station:WAVCIS:CSI09:1,2011-03-03T09:00:00Z,29.1015,-89.9782,1017.22,11111222 
WAVCIS,ioos:station:WAVCIS:CSI09:1,2011-03-03T10:00:00Z,29.1015,-89.9782,1017.35,11111222 
WAVCIS,ioos:station:WAVCIS:CSI09:1,2011-03-03T11:00:00Z,29.1015,-89.9782,1017.34,11111222 
WAVCIS,ioos:station:WAVCIS:CSI09:1,2011-03-03T12:00:00Z,29.1015,-89.9782,1017.36,11111222 
WAVCIS,ioos:station:WAVCIS:CSI09:1,2011-03-03T13:00:00Z,29.1015,-89.9782,1018.08,11111222 
WAVCIS,ioos:station:WAVCIS:CSI09:1,2011-03-03T14:00:00Z,29.1015,-89.9782,1018.58,11111222 
WAVCIS,ioos:station:WAVCIS:CSI09:1,2011-03-03T15:00:00Z,29.1015,-89.9782,1018.88,11111222 
WAVCIS,ioos:station:WAVCIS:CSI09:1,2011-03-03T16:00:00Z,29.1015,-89.9782,1019.14,11111222 
WAVCIS,ioos:station:WAVCIS:CSI09:1,2011-03-03T17:00:00Z,29.1015,-89.9782,1019.12,11111222 
WAVCIS,ioos:station:WAVCIS:CSI09:1,2011-03-03T18:00:00Z,29.1015,-89.9782,1018.56,11111222 
WAVCIS,ioos:station:WAVCIS:CSI09:1,2011-03-03T19:00:00Z,29.1015,-89.9782,1017.59,11111222 
WAVCIS,ioos:station:WAVCIS:CSI09:1,2011-03-03T20:00:00Z,29.1015,-89.9782,1016.88,11111222 
WAVCIS,ioos:station:WAVCIS:CSI09:1,2011-03-03T21:00:00Z,29.1015,-89.9782,1016.26,11111222 
WAVCIS,ioos:station:WAVCIS:CSI09:1,2011-03-03T22:00:00Z,29.1015,-89.9782,1016.24,11111222 
WAVCIS,ioos:station:WAVCIS:CSI09:1,2011-03-03T23:00:00Z,29.1015,-89.9782,1016.54,11111222 
WAVCIS,ioos:station:WAVCIS:CSI09:1,2011-03-04T00:00:00Z,29.1015,-89.9782,1016.35,11111222 
WAVCIS,ioos:station:WAVCIS:CSI09:1,2011-03-04T01:00:00Z,29.1015,-89.9782,1016.53,11111222 
WAVCIS,ioos:station:WAVCIS:CSI09:1,2011-03-04T02:00:00Z,29.1015,-89.9782,1017.13,11111222 
WAVCIS,ioos:station:WAVCIS:CSI09:1,2011-03-04T03:00:00Z,29.1015,-89.9782,1017.15,11111222 
WAVCIS,ioos:station:WAVCIS:CSI09:1,2011-03-04T04:00:00Z,29.1015,-89.9782,1017.05,11111222 
WAVCIS,ioos:station:WAVCIS:CSI09:1,2011-03-04T05:00:00Z,29.1015,-89.9782,1016.73,11111222 
WAVCIS,ioos:station:WAVCIS:CSI09:1,2011-03-04T06:00:00Z,29.1015,-89.9782,1016.53,11111222 
WAVCIS,ioos:station:WAVCIS:CSI09:1,2011-03-04T07:00:00Z,29.1015,-89.9782,1016.34,11111222 
WAVCIS,ioos:station:WAVCIS:CSI09:1,2011-03-04T08:00:00Z,29.1015,-89.9782,1015.38,11111222 
WAVCIS,ioos:station:WAVCIS:CSI09:1,2011-03-04T09:00:00Z,29.1015,-89.9782,1014.86,11111222 
WAVCIS,ioos:station:WAVCIS:CSI09:1,2011-03-04T10:00:00Z,29.1015,-89.9782,1014.7,11111222 
WAVCIS,ioos:station:WAVCIS:CSI09:1,2011-03-04T11:00:00Z,29.1015,-89.9782,1014.64,11111222 
WAVCIS,ioos:station:WAVCIS:CSI09:1,2011-03-04T12:00:00Z,29.1015,-89.9782,1014.94,11111222 
WAVCIS,ioos:station:WAVCIS:CSI09:1,2011-03-04T13:00:00Z,29.1015,-89.9782,1015.47,11111222 
WAVCIS,ioos:station:WAVCIS:CSI09:1,2011-03-04T14:00:00Z,29.1015,-89.9782,1016.11,11111222 
WAVCIS,ioos:station:WAVCIS:CSI09:1,2011-03-04T15:00:00Z,29.1015,-89.9782,1016.77,11111222 
WAVCIS,ioos:station:WAVCIS:CSI09:1,2011-03-04T16:00:00Z,29.1015,-89.9782,1017.09,11111222 
WAVCIS,ioos:station:WAVCIS:CSI09:1,2011-03-04T17:00:00Z,29.1015,-89.9782,1016.91,11111222 
WAVCIS,ioos:station:WAVCIS:CSI09:1,2011-03-04T18:00:00Z,29.1015,-89.9782,1016.13,11111222 
WAVCIS,ioos:station:WAVCIS:CSI09:1,2011-03-04T19:00:00Z,29.1015,-89.9782,1015.49,11111222 
WAVCIS,ioos:station:WAVCIS:CSI09:1,2011-03-04T20:00:00Z,29.1015,-89.9782,1015.11,11111222 
WAVCIS,ioos:station:WAVCIS:CSI09:1,2011-03-04T21:00:00Z,29.1015,-89.9782,1014.57,11111222 
WAVCIS,ioos:station:WAVCIS:CSI09:1,2011-03-04T22:00:00Z,29.1015,-89.9782,1014.33,11111222 
WAVCIS,ioos:station:WAVCIS:CSI09:1,2011-03-04T23:00:00Z,29.1015,-89.9782,1014.34,11111222 
WAVCIS,ioos:station:WAVCIS:CSI09:1,2011-03-05T00:00:00Z,29.1015,-89.9782,1014.6,11111222 
WAVCIS,ioos:station:WAVCIS:CSI09:1,2011-03-05T01:00:00Z,29.1015,-89.9782,1013.95,11111222 
WAVCIS,ioos:station:WAVCIS:CSI09:1,2011-03-05T02:00:00Z,29.1015,-89.9782,1014.63,11111222 
WAVCIS,ioos:station:WAVCIS:CSI09:1,2011-03-05T03:00:00Z,29.1015,-89.9782,1014.91,11111222 
WAVCIS,ioos:station:WAVCIS:CSI09:1,2011-03-05T04:00:00Z,29.1015,-89.9782,1014.65,11111222 
WAVCIS,ioos:station:WAVCIS:CSI09:1,2011-03-05T05:00:00Z,29.1015,-89.9782,1014.57,11111222 
WAVCIS,ioos:station:WAVCIS:CSI09:1,2011-03-05T06:00:00Z,29.1015,-89.9782,1014.23,11111222 
WAVCIS,ioos:station:WAVCIS:CSI09:1,2011-03-05T07:00:00Z,29.1015,-89.9782,1014.6,11111222 
WAVCIS,ioos:station:WAVCIS:CSI09:1,2011-03-05T08:00:00Z,29.1015,-89.9782,1014.48,11111222 
WAVCIS,ioos:station:WAVCIS:CSI09:1,2011-03-05T09:00:00Z,29.1015,-89.9782,1014.48,11111222 
WAVCIS,ioos:station:WAVCIS:CSI09:1,2011-03-05T10:00:00Z,29.1015,-89.9782,1013.66,11111222 
WAVCIS,ioos:station:WAVCIS:CSI09:1,2011-03-05T11:00:00Z,29.1015,-89.9782,1014.13,11111222 
WAVCIS,ioos:station:WAVCIS:CSI09:1,2011-03-05T12:00:00Z,29.1015,-89.9782,1014.07,11111222 
WAVCIS,ioos:station:WAVCIS:CSI09:1,2011-03-05T13:00:00Z,29.1015,-89.9782,1014.23,11111222 
WAVCIS,ioos:station:WAVCIS:CSI09:1,2011-03-05T14:00:00Z,29.1015,-89.9782,1014.4,11111222 
WAVCIS,ioos:station:WAVCIS:CSI09:1,2011-03-05T15:00:00Z,29.1015,-89.9782,1014.66,11111222 
WAVCIS,ioos:station:WAVCIS:CSI09:1,2011-03-05T16:00:00Z,29.1015,-89.9782,1014.44,11111222 
WAVCIS,ioos:station:WAVCIS:CSI09:1,2011-03-05T17:00:00Z,29.1015,-89.9782,1014.15,11111222 
WAVCIS,ioos:station:WAVCIS:CSI09:1,2011-03-05T18:00:00Z,29.1015,-89.9782,1012.89,11111222 
WAVCIS,ioos:station:WAVCIS:CSI09:1,2011-03-05T19:00:00Z,29.1015,-89.9782,1010.89,11111222 
WAVCIS,ioos:station:WAVCIS:CSI09:1,2011-03-05T20:00:00Z,29.1015,-89.9782,1012.9,11111222 
WAVCIS,ioos:station:WAVCIS:CSI09:1,2011-03-05T21:00:00Z,29.1015,-89.9782,1011.92,11111222 
WAVCIS,ioos:station:WAVCIS:CSI09:1,2011-03-05T22:00:00Z,29.1015,-89.9782,1011.64,11111222 
WAVCIS,ioos:station:WAVCIS:CSI09:1,2011-03-05T23:00:00Z,29.1015,-89.9782,1010.6,11111222 
WAVCIS,ioos:station:WAVCIS:CSI09:1,2011-03-06T00:00:00Z,29.1015,-89.9782,1011.81,11111222 
WAVCIS,ioos:station:WAVCIS:CSI09:1,2011-03-06T01:00:00Z,29.1015,-89.9782,1011.65,11111222 
WAVCIS,ioos:station:WAVCIS:CSI09:1,2011-03-06T02:00:00Z,29.1015,-89.9782,1012.1,11111222 
WAVCIS,ioos:station:WAVCIS:CSI09:1,2011-03-06T03:00:00Z,29.1015,-89.9782,1012.95,11111222 
WAVCIS,ioos:station:WAVCIS:CSI09:1,2011-03-06T04:00:00Z,29.1015,-89.9782,1013.84,11111222 
WAVCIS,ioos:station:WAVCIS:CSI09:1,2011-03-06T05:00:00Z,29.1015,-89.9782,1014.01,11111222 
WAVCIS,ioos:station:WAVCIS:CSI09:1,2011-03-06T06:00:00Z,29.1015,-89.9782,1014.63,11111222 
WAVCIS,ioos:station:WAVCIS:CSI09:1,2011-03-06T07:00:00Z,29.1015,-89.9782,1014.98,11111222 
WAVCIS,ioos:station:WAVCIS:CSI09:1,2011-03-06T08:00:00Z,29.1015,-89.9782,1015.06,11111222 
WAVCIS,ioos:station:WAVCIS:CSI09:1,2011-03-06T09:00:00Z,29.1015,-89.9782,1015.33,11111222 
WAVCIS,ioos:station:WAVCIS:CSI09:1,2011-03-06T10:00:00Z,29.1015,-89.9782,1015.73,11111222 
WAVCIS,ioos:station:WAVCIS:CSI09:1,2011-03-06T11:00:00Z,29.1015,-89.9782,1016.48,11111222 
WAVCIS,ioos:station:WAVCIS:CSI09:1,2011-03-06T12:00:00Z,29.1015,-89.9782,1017.3,11111222 
WAVCIS,ioos:station:WAVCIS:CSI09:1,2011-03-06T13:00:00Z,29.1015,-89.9782,1018.23,11111222 
WAVCIS,ioos:station:WAVCIS:CSI09:1,2011-03-06T14:00:00Z,29.1015,-89.9782,1018.71,11111222 
WAVCIS,ioos:station:WAVCIS:CSI09:1,2011-03-06T15:00:00Z,29.1015,-89.9782,1019.69,11111222 
WAVCIS,ioos:station:WAVCIS:CSI09:1,2011-03-06T16:00:00Z,29.1015,-89.9782,1019.69,11111222 
WAVCIS,ioos:station:WAVCIS:CSI09:1,2011-03-06T17:00:00Z,29.1015,-89.9782,1019.73,11111222 
WAVCIS,ioos:station:WAVCIS:CSI09:1,2011-03-06T18:00:00Z,29.1015,-89.9782,1019.41,11111222 
WAVCIS,ioos:station:WAVCIS:CSI09:1,2011-03-06T19:00:00Z,29.1015,-89.9782,1018.42,11111222 
WAVCIS,ioos:station:WAVCIS:CSI09:1,2011-03-06T20:00:00Z,29.1015,-89.9782,1018.65,11111222 
WAVCIS,ioos:station:WAVCIS:CSI09:1,2011-03-06T21:00:00Z,29.1015,-89.9782,1017.75,11111222 
WAVCIS,ioos:station:WAVCIS:CSI09:1,2011-03-06T22:00:00Z,29.1015,-89.9782,1017.64,11111222 
WAVCIS,ioos:station:WAVCIS:CSI09:1,2011-03-06T23:00:00Z,29.1015,-89.9782,1017.26,11111222 
WAVCIS,ioos:station:WAVCIS:CSI09:1,2011-03-07T00:00:00Z,29.1015,-89.9782,1017.36,11111222 
WAVCIS,ioos:station:WAVCIS:CSI09:1,2011-03-07T01:00:00Z,29.1015,-89.9782,1017.32,11111222 
WAVCIS,ioos:station:WAVCIS:CSI09:1,2011-03-07T02:00:00Z,29.1015,-89.9782,1017.67,11111222 
WAVCIS,ioos:station:WAVCIS:CSI09:1,2011-03-07T03:00:00Z,29.1015,-89.9782,1018.05,11111222 
WAVCIS,ioos:station:WAVCIS:CSI09:1,2011-03-07T04:00:00Z,29.1015,-89.9782,1017.99,11111222 
WAVCIS,ioos:station:WAVCIS:CSI09:1,2011-03-07T05:00:00Z,29.1015,-89.9782,1017.86,11111222 
WAVCIS,ioos:station:WAVCIS:CSI09:1,2011-03-07T06:00:00Z,29.1015,-89.9782,1017.68,11111222 
WAVCIS,ioos:station:WAVCIS:CSI09:1,2011-03-07T07:00:00Z,29.1015,-89.9782,1017.46,11111222 
WAVCIS,ioos:station:WAVCIS:CSI09:1,2011-03-07T08:00:00Z,29.1015,-89.9782,1016.29,11111222 
WAVCIS,ioos:station:WAVCIS:CSI09:1,2011-03-07T09:00:00Z,29.1015,-89.9782,1015.88,11111222 
WAVCIS,ioos:station:WAVCIS:CSI09:1,2011-03-07T10:00:00Z,29.1015,-89.9782,1015.94,11111222 
WAVCIS,ioos:station:WAVCIS:CSI09:1,2011-03-07T11:00:00Z,29.1015,-89.9782,1016.12,11111222 
WAVCIS,ioos:station:WAVCIS:CSI09:1,2011-03-07T12:00:00Z,29.1015,-89.9782,1016.4,11111222 
WAVCIS,ioos:station:WAVCIS:CSI09:1,2011-03-07T13:00:00Z,29.1015,-89.9782,1016.36,11111222 
WAVCIS,ioos:station:WAVCIS:CSI09:1,2011-03-07T14:00:00Z,29.1015,-89.9782,1017.26,11111222 
WAVCIS,ioos:station:WAVCIS:CSI09:1,2011-03-07T15:00:00Z,29.1015,-89.9782,1017.59,11111222 
WAVCIS,ioos:station:WAVCIS:CSI09:1,2011-03-07T16:00:00Z,29.1015,-89.9782,1017.72,11111222 
WAVCIS,ioos:station:WAVCIS:CSI09:1,2011-03-07T17:00:00Z,29.1015,-89.9782,1017.43,11111222 
WAVCIS,ioos:station:WAVCIS:CSI09:1,2011-03-07T18:00:00Z,29.1015,-89.9782,1016.99,11111222 
WAVCIS,ioos:station:WAVCIS:CSI09:1,2011-03-07T19:00:00Z,29.1015,-89.9782,1016.34,11111222 
WAVCIS,ioos:station:WAVCIS:CSI09:1,2011-03-07T20:00:00Z,29.1015,-89.9782,1015.59,11111222 
WAVCIS,ioos:station:WAVCIS:CSI09:1,2011-03-07T21:00:00Z,29.1015,-89.9782,1015.15,11111222 
WAVCIS,ioos:station:WAVCIS:CSI09:1,2011-03-07T22:00:00Z,29.1015,-89.9782,1015.0,11111222 
WAVCIS,ioos:station:WAVCIS:CSI09:1,2011-03-07T23:00:00Z,29.1015,-89.9782,1014.66,11111222 
WAVCIS,ioos:station:WAVCIS:CSI09:1,2011-03-08T00:00:00Z,29.1015,-89.9782,1014.33,11111222 
WAVCIS,ioos:station:WAVCIS:CSI09:1,2011-03-08T01:00:00Z,29.1015,-89.9782,1014.48,11111222 
WAVCIS,ioos:station:WAVCIS:CSI09:1,2011-03-08T02:00:00Z,29.1015,-89.9782,1014.49,11111222 
WAVCIS,ioos:station:WAVCIS:CSI09:1,2011-03-08T03:00:00Z,29.1015,-89.9782,1014.72,11111222 
WAVCIS,ioos:station:WAVCIS:CSI09:1,2011-03-08T04:00:00Z,29.1015,-89.9782,1014.5,11111222 
WAVCIS,ioos:station:WAVCIS:CSI09:1,2011-03-08T05:00:00Z,29.1015,-89.9782,1014.3,11111222 
WAVCIS,ioos:station:WAVCIS:CSI09:1,2011-03-08T06:00:00Z,29.1015,-89.9782,1014.16,11111222 
WAVCIS,ioos:station:WAVCIS:CSI09:1,2011-03-08T07:00:00Z,29.1015,-89.9782,1013.84,11111222 
WAVCIS,ioos:station:WAVCIS:CSI09:1,2011-03-08T08:00:00Z,29.1015,-89.9782,1013.63,11111222 
WAVCIS,ioos:station:WAVCIS:CSI09:1,2011-03-08T09:00:00Z,29.1015,-89.9782,1012.77,11111222 
WAVCIS,ioos:station:WAVCIS:CSI09:1,2011-03-08T10:00:00Z,29.1015,-89.9782,1012.39,11111222 
WAVCIS,ioos:station:WAVCIS:CSI09:1,2011-03-08T11:00:00Z,29.1015,-89.9782,1012.27,11111222 
WAVCIS,ioos:station:WAVCIS:CSI09:1,2011-03-08T12:00:00Z,29.1015,-89.9782,1012.49,11111222 
WAVCIS,ioos:station:WAVCIS:CSI09:1,2011-03-08T13:00:00Z,29.1015,-89.9782,1013.12,11111222 
WAVCIS,ioos:station:WAVCIS:CSI09:1,2011-03-08T14:00:00Z,29.1015,-89.9782,1013.66,11111222 
WAVCIS,ioos:station:WAVCIS:CSI09:1,2011-03-08T15:00:00Z,29.1015,-89.9782,1014.37,11111222 
WAVCIS,ioos:station:WAVCIS:CSI09:1,2011-03-08T16:00:00Z,29.1015,-89.9782,1014.87,11111222 
WAVCIS,ioos:station:WAVCIS:CSI09:1,2011-03-08T17:00:00Z,29.1015,-89.9782,1014.65,11111222 
WAVCIS,ioos:station:WAVCIS:CSI09:1,2011-03-08T18:00:00Z,29.1015,-89.9782,1013.94,11111222 
WAVCIS,ioos:station:WAVCIS:CSI09:1,2011-03-08T19:00:00Z,29.1015,-89.9782,1013.22,11111222 
WAVCIS,ioos:station:WAVCIS:CSI09:1,2011-03-08T20:00:00Z,29.1015,-89.9782,1012.12,11111222 
WAVCIS,ioos:station:WAVCIS:CSI09:1,2011-03-08T21:00:00Z,29.1015,-89.9782,1011.49,11111222 
WAVCIS,ioos:station:WAVCIS:CSI09:1,2011-03-08T22:00:00Z,29.1015,-89.9782,1011.1,11111222 
WAVCIS,ioos:station:WAVCIS:CSI09:1,2011-03-08T23:00:00Z,29.1015,-89.9782,1011.45,11111222 
WAVCIS,ioos:station:WAVCIS:CSI09:1,2011-03-09T00:00:00Z,29.1015,-89.9782,1011.42,11111222 
WAVCIS,ioos:station:WAVCIS:CSI09:1,2011-03-09T01:00:00Z,29.1015,-89.9782,1011.9,11111222 
WAVCIS,ioos:station:WAVCIS:CSI09:1,2011-03-09T02:00:00Z,29.1015,-89.9782,1011.75,11111222 
WAVCIS,ioos:station:WAVCIS:CSI09:1,2011-03-09T03:00:00Z,29.1015,-89.9782,1012.1,11111222 
WAVCIS,ioos:station:WAVCIS:CSI09:1,2011-03-09T04:00:00Z,29.1015,-89.9782,1012.67,11111222 
WAVCIS,ioos:station:WAVCIS:CSI09:1,2011-03-09T05:00:00Z,29.1015,-89.9782,1011.6,11111222 
WAVCIS,ioos:station:WAVCIS:CSI09:1,2011-03-09T06:00:00Z,29.1015,-89.9782,1011.37,11111222 
WAVCIS,ioos:station:WAVCIS:CSI09:1,2011-03-09T07:00:00Z,29.1015,-89.9782,1010.78,11111222 
WAVCIS,ioos:station:WAVCIS:CSI09:1,2011-03-09T08:00:00Z,29.1015,-89.9782,1010.41,11111222 
WAVCIS,ioos:station:WAVCIS:CSI09:1,2011-03-09T09:00:00Z,29.1015,-89.9782,1010.2,11111222 
WAVCIS,ioos:station:WAVCIS:CSI09:1,2011-03-09T10:00:00Z,29.1015,-89.9782,1010.59,11111222 
WAVCIS,ioos:station:WAVCIS:CSI09:1,2011-03-09T11:00:00Z,29.1015,-89.9782,1010.28,11111222 
WAVCIS,ioos:station:WAVCIS:CSI09:1,2011-03-09T12:00:00Z,29.1015,-89.9782,1009.92,11111222 
WAVCIS,ioos:station:WAVCIS:CSI09:1,2011-03-09T13:00:00Z,29.1015,-89.9782,1010.79,11111222 
WAVCIS,ioos:station:WAVCIS:CSI09:1,2011-03-09T14:00:00Z,29.1015,-89.9782,1011.35,11111222 
WAVCIS,ioos:station:WAVCIS:CSI09:1,2011-03-09T15:00:00Z,29.1015,-89.9782,1012.72,11111222 
WAVCIS,ioos:station:WAVCIS:CSI09:1,2011-03-09T16:00:00Z,29.1015,-89.9782,1013.54,11111222 
WAVCIS,ioos:station:WAVCIS:CSI09:1,2011-03-09T17:00:00Z,29.1015,-89.9782,1013.67,11111222 
WAVCIS,ioos:station:WAVCIS:CSI09:1,2011-03-09T18:00:00Z,29.1015,-89.9782,1013.15,11111222 
WAVCIS,ioos:station:WAVCIS:CSI09:1,2011-03-09T19:00:00Z,29.1015,-89.9782,1012.96,11111222 
WAVCIS,ioos:station:WAVCIS:CSI09:1,2011-03-09T20:00:00Z,29.1015,-89.9782,1012.88,11111222 
WAVCIS,ioos:station:WAVCIS:CSI09:1,2011-03-09T21:00:00Z,29.1015,-89.9782,1012.63,11111222 
WAVCIS,ioos:station:WAVCIS:CSI09:1,2011-03-09T22:00:00Z,29.1015,-89.9782,1012.87,11111222 
WAVCIS,ioos:station:WAVCIS:CSI09:1,2011-03-09T23:00:00Z,29.1015,-89.9782,1013.21,11111222 
WAVCIS,ioos:station:WAVCIS:CSI09:1,2011-03-10T00:00:00Z,29.1015,-89.9782,1013.9,11111222 
WAVCIS,ioos:station:WAVCIS:CSI09:1,2011-03-10T01:00:00Z,29.1015,-89.9782,1014.5,11111222 
WAVCIS,ioos:station:WAVCIS:CSI09:1,2011-03-10T02:00:00Z,29.1015,-89.9782,1015.49,11111222 
WAVCIS,ioos:station:WAVCIS:CSI09:1,2011-03-10T03:00:00Z,29.1015,-89.9782,1016.77,11111222 
WAVCIS,ioos:station:WAVCIS:CSI09:1,2011-03-10T04:00:00Z,29.1015,-89.9782,1017.16,11111222 
WAVCIS,ioos:station:WAVCIS:CSI09:1,2011-03-10T05:00:00Z,29.1015,-89.9782,1017.52,11111222 
WAVCIS,ioos:station:WAVCIS:CSI09:1,2011-03-10T06:00:00Z,29.1015,-89.9782,1018.06,11111222 
WAVCIS,ioos:station:WAVCIS:CSI09:1,2011-03-10T07:00:00Z,29.1015,-89.9782,1018.75,11111222 
WAVCIS,ioos:station:WAVCIS:CSI09:1,2011-03-10T08:00:00Z,29.1015,-89.9782,1018.76,11111222 
WAVCIS,ioos:station:WAVCIS:CSI09:1,2011-03-10T09:00:00Z,29.1015,-89.9782,1019.03,11111222 
WAVCIS,ioos:station:WAVCIS:CSI09:1,2011-03-10T10:00:00Z,29.1015,-89.9782,1019.53,11111222 
WAVCIS,ioos:station:WAVCIS:CSI09:1,2011-03-10T11:00:00Z,29.1015,-89.9782,1020.68,11111222 
WAVCIS,ioos:station:WAVCIS:CSI09:1,2011-03-10T12:00:00Z,29.1015,-89.9782,1021.61,11111222 
WAVCIS,ioos:station:WAVCIS:CSI09:1,2011-03-10T13:00:00Z,29.1015,-89.9782,1022.74,11111222 
WAVCIS,ioos:station:WAVCIS:CSI09:1,2011-03-10T14:00:00Z,29.1015,-89.9782,1023.67,11111222 
WAVCIS,ioos:station:WAVCIS:CSI09:1,2011-03-10T15:00:00Z,29.1015,-89.9782,1023.54,11111222 
WAVCIS,ioos:station:WAVCIS:CSI09:1,2011-03-10T16:00:00Z,29.1015,-89.9782,1023.88,11111222 
WAVCIS,ioos:station:WAVCIS:CSI09:1,2011-03-10T17:00:00Z,29.1015,-89.9782,1024.04,11111222 
WAVCIS,ioos:station:WAVCIS:CSI09:1,2011-03-10T18:00:00Z,29.1015,-89.9782,1023.9,11111222 
WAVCIS,ioos:station:WAVCIS:CSI09:1,2011-03-10T19:00:00Z,29.1015,-89.9782,1023.32,11111222 
WAVCIS,ioos:station:WAVCIS:CSI09:1,2011-03-10T20:00:00Z,29.1015,-89.9782,1022.61,11111222 
WAVCIS,ioos:station:WAVCIS:CSI09:1,2011-03-10T21:00:00Z,29.1015,-89.9782,1022.33,11111222 
WAVCIS,ioos:station:WAVCIS:CSI09:1,2011-03-10T22:00:00Z,29.1015,-89.9782,1021.92,11111222 
WAVCIS,ioos:station:WAVCIS:CSI09:1,2011-03-10T23:00:00Z,29.1015,-89.9782,1021.93,11111222 
WAVCIS,ioos:station:WAVCIS:CSI09:1,2011-03-11T00:00:00Z,29.1015,-89.9782,1021.46,11111222 
WAVCIS,ioos:station:WAVCIS:CSI09:1,2011-03-11T01:00:00Z,29.1015,-89.9782,1022.12,11111222 
WAVCIS,ioos:station:WAVCIS:CSI09:1,2011-03-11T02:00:00Z,29.1015,-89.9782,1023.08,11111222 
WAVCIS,ioos:station:WAVCIS:CSI09:1,2011-03-11T03:00:00Z,29.1015,-89.9782,1024.16,11111222 
WAVCIS,ioos:station:WAVCIS:CSI09:1,2011-03-11T04:00:00Z,29.1015,-89.9782,1024.18,11111222 
WAVCIS,ioos:station:WAVCIS:CSI09:1,2011-03-11T05:00:00Z,29.1015,-89.9782,1023.9,11111222 
WAVCIS,ioos:station:WAVCIS:CSI09:1,2011-03-11T06:00:00Z,29.1015,-89.9782,1023.43,11111222 
WAVCIS,ioos:station:WAVCIS:CSI09:1,2011-03-11T07:00:00Z,29.1015,-89.9782,1023.68,11111222 
WAVCIS,ioos:station:WAVCIS:CSI09:1,2011-03-11T08:00:00Z,29.1015,-89.9782,1023.49,11111222 
WAVCIS,ioos:station:WAVCIS:CSI09:1,2011-03-11T09:00:00Z,29.1015,-89.9782,1023.74,11111222 
WAVCIS,ioos:station:WAVCIS:CSI09:1,2011-03-11T10:00:00Z,29.1015,-89.9782,1024.13,11111222 
WAVCIS,ioos:station:WAVCIS:CSI09:1,2011-03-11T11:00:00Z,29.1015,-89.9782,1024.2,11111222 
WAVCIS,ioos:station:WAVCIS:CSI09:1,2011-03-11T12:00:00Z,29.1015,-89.9782,1024.32,11111222 
WAVCIS,ioos:station:WAVCIS:CSI09:1,2011-03-11T13:00:00Z,29.1015,-89.9782,1024.88,11111222 
WAVCIS,ioos:station:WAVCIS:CSI09:1,2011-03-11T14:00:00Z,29.1015,-89.9782,1025.88,11111222 
WAVCIS,ioos:station:WAVCIS:CSI09:1,2011-03-11T15:00:00Z,29.1015,-89.9782,1026.04,11111222 
WAVCIS,ioos:station:WAVCIS:CSI09:1,2011-03-11T16:00:00Z,29.1015,-89.9782,1026.18,11111222 
WAVCIS,ioos:station:WAVCIS:CSI09:1,2011-03-11T17:00:00Z,29.1015,-89.9782,1025.91,11111222 
WAVCIS,ioos:station:WAVCIS:CSI09:1,2011-03-11T18:00:00Z,29.1015,-89.9782,1025.35,11111222 
WAVCIS,ioos:station:WAVCIS:CSI09:1,2011-03-11T19:00:00Z,29.1015,-89.9782,1024.55,11111222 
WAVCIS,ioos:station:WAVCIS:CSI09:1,2011-03-11T20:00:00Z,29.1015,-89.9782,1023.98,11111222 
WAVCIS,ioos:station:WAVCIS:CSI09:1,2011-03-11T21:00:00Z,29.1015,-89.9782,1023.67,11111222 
WAVCIS,ioos:station:WAVCIS:CSI09:1,2011-03-11T22:00:00Z,29.1015,-89.9782,1023.5,11111222 